Location: Heathcote
(40.9845°N, 73.7746°W)
Time: 04:25:27
(UTC+00:00)

Cosmos 2227 Rocket - Pass Details

Date: 29 October 2020
Orbit: 839 x 845 km, 71.0° (Epoch: 23 November)

Event Time Altitude Azimuth Distance (km) Brightness Sun altitude
Rises 23:41:38 0° 330° (NNW) 3,406 5.8 -20.8°
Reaches altitude 10° 23:44:11 10° 324° (NW) 2,468 5.1 -21.3°
Maximum altitude 23:49:31 44° 254° (WSW) 1,153 3.3 -22.3°
Drops below altitude 10° 23:54:50 10° 183° (S) 2,456 4.6 -23.3°
Sets 23:57:21 0° 177° (S) 3,387 5.3 -23.8°
